| time (UTC) | temp F | wind direction | speed MPH | gust MPH | rain 1hr in | rain 24hr in | rain mn in | humidity % | barometer mb |
| 20260507234552 | 51 | 342 | 0.0 | 3.0 | 0.00 | 0.00 | 0.00 | 79 | 1017.2 |
| 20260507233051 | 52 | 349 | 0.0 | 1.0 | 0.00 | 0.00 | 0.00 | 77 | 1017.3 |
| 20260507231556 | 52 | 0 | 0.0 | 1.0 | 0.00 | 0.00 | 0.00 | 77 | 1017.3 |
| 20260507230056 | 53 | 0 | 0.0 | 3.0 | 0.00 | 0.00 | 0.00 | 77 | 1017.3 |
| 20260507224556 | 53 | 333 | 2.0 | 4.0 | 0.00 | 0.00 | 0.00 | 77 | 1017.3 |
| 20260507223055 | 53 | 0 | 0.0 | 1.0 | 0.00 | 0.00 | 0.00 | 76 | 1017.4 |
| 20260507221555 | 53 | 0 | 0.0 | 1.0 | 0.00 | 0.00 | 0.00 | 76 | 1017.2 |
| 20260507220056 | 53 | 0 | 0.0 | 2.0 | 0.00 | 0.00 | 0.00 | 76 | 1017.1 |
| 20260507214556 | 53 | 329 | 2.0 | 5.0 | 0.00 | 0.00 | 0.00 | 76 | 1017.0 |
| 20260507213057 | 53 | 344 | 1.0 | 4.0 | 0.00 | 0.00 | 0.00 | 75 | 1017.0 |
| 20260507211555 | 53 | 317 | 1.0 | 3.0 | 0.00 | 0.00 | 0.00 | 74 | 1017.0 |
| 20260507210149 | 54 | 0 | 0.0 | 1.0 | 0.00 | 0.00 | 0.00 | 74 | 1016.8 |
| 20260507204551 | 54 | 201 | 0.0 | 5.0 | 0.00 | 0.00 | 0.00 | 74 | 1016.8 |
| 20260507203059 | 54 | 355 | 3.0 | 5.0 | 0.00 | 0.00 | 0.00 | 74 | 1016.9 |
| 20260507201552 | 54 | 350 | 3.0 | 5.0 | 0.00 | 0.00 | 0.00 | 73 | 1017.1 |
| 20260507200052 | 54 | 0 | 0.0 | 3.0 | 0.00 | 0.00 | 0.00 | 73 | 1016.8 |
| 20260507194554 | 54 | 297 | 2.0 | 5.0 | 0.00 | 0.00 | 0.00 | 73 | 1016.9 |
| 20260507193055 | 54 | 28 | 0.0 | 3.0 | 0.00 | 0.00 | 0.00 | 73 | 1016.7 |
| 20260507191558 | 54 | 313 | 3.0 | 5.0 | 0.00 | 0.00 | 0.00 | 73 | 1016.7 |
| 20260507190051 | 55 | 30 | 1.0 | 4.0 | 0.00 | 0.00 | 0.00 | 72 | 1016.4 |
| 20260507184554 | 55 | 336 | 3.0 | 5.0 | 0.00 | 0.00 | 0.00 | 72 | 1016.4 |
| 20260507183056 | 56 | 338 | 3.0 | 5.0 | 0.00 | 0.00 | 0.00 | 72 | 1016.3 |
| 20260507181553 | 56 | 355 | 2.0 | 6.0 | 0.00 | 0.00 | 0.00 | 70 | 1016.1 |
| 20260507180059 | 57 | 355 | 4.0 | 6.0 | 0.00 | 0.00 | 0.00 | 69 | 1016.1 |
| 20260507174605 | 58 | 360 | 2.0 | 5.0 | 0.00 | 0.00 | 0.00 | 67 | 1015.9 |
| 20260507173104 | 58 | 324 | 3.0 | 5.0 | 0.00 | 0.00 | 0.00 | 67 | 1015.8 |
| 20260507171611 | 61 | 339 | 1.0 | 3.0 | 0.00 | 0.00 | 0.00 | 64 | 1015.7 |
| 20260507170053 | 62 | 333 | 0.0 | 2.0 | 0.00 | 0.00 | 0.00 | 61 | 1015.6 |
| 20260507164553 | 63 | 0 | 0.0 | 2.0 | 0.00 | 0.00 | 0.00 | 62 | 1015.6 |
| 20260507163054 | 63 | 0 | 1.0 | 4.0 | 0.00 | 0.00 | 0.00 | 60 | 1015.7 |
| 20260507161601 | 64 | 0 | 1.0 | 4.0 | 0.00 | 0.00 | 0.00 | 54 | 1015.6 |
| 20260507160057 | 65 | 178 | 0.0 | 8.0 | 0.00 | 0.00 | 0.00 | 54 | 1015.5 |
| 20260507154553 | 65 | 94 | 2.0 | 5.0 | 0.00 | 0.00 | 0.00 | 54 | 1015.3 |
| 20260507153101 | 65 | 267 | 2.0 | 8.0 | 0.00 | 0.00 | 0.00 | 56 | 1015.4 |
| 20260507151558 | 65 | 0 | 2.0 | 6.0 | 0.00 | 0.00 | 0.00 | 56 | 1015.4 |
| 20260507150104 | 65 | 132 | 4.0 | 11.0 | 0.00 | 0.00 | 0.00 | 56 | 1015.5 |
| 20260507144554 | 65 | 140 | 4.0 | 9.0 | 0.00 | 0.00 | 0.00 | 57 | 1015.5 |
| 20260507143058 | 64 | 167 | 3.0 | 7.0 | 0.00 | 0.00 | 0.00 | 59 | 1015.6 |
| 20260507141553 | 64 | 185 | 2.0 | 6.0 | 0.00 | 0.00 | 0.00 | 57 | 1015.5 |
| 20260507140108 | 65 | 153 | 3.0 | 9.0 | 0.00 | 0.00 | 0.00 | 57 | 1015.3 |
| 20260507134556 | 65 | 169 | 4.0 | 10.0 | 0.00 | 0.00 | 0.00 | 57 | 1015.5 |
| 20260507133101 | 65 | 164 | 5.0 | 12.0 | 0.00 | 0.00 | 0.00 | 56 | 1015.7 |
| 20260507131554 | 67 | 148 | 4.0 | 10.0 | 0.00 | 0.00 | 0.00 | 52 | 1015.7 |
| 20260507130108 | 66 | 0 | 1.0 | 6.0 | 0.00 | 0.00 | 0.00 | 51 | 1015.7 |
| 20260507124613 | 65 | 140 | 5.0 | 10.0 | 0.00 | 0.04 | 0.00 | 52 | 1015.8 |
| 20260507123053 | 65 | 175 | 5.0 | 16.0 | 0.00 | 0.04 | 0.00 | 54 | 1015.8 |
| 20260507121554 | 66 | 167 | 4.0 | 10.0 | 0.00 | 0.04 | 0.00 | 49 | 1015.7 |
| 20260507120054 | 67 | 142 | 3.0 | 8.0 | 0.00 | 0.04 | 0.00 | 47 | 1015.8 |
| 20260507114610 | 69 | 166 | 2.0 | 12.0 | 0.00 | 0.14 | 0.00 | 44 | 1015.7 |
| 20260507113055 | 69 | 100 | 2.0 | 9.0 | 0.00 | 0.14 | 0.00 | 46 | 1015.6 |
| 20260507111553 | 68 | 182 | 2.0 | 8.0 | 0.00 | 0.14 | 0.00 | 44 | 1015.8 |
| 20260507110052 | 66 | 315 | 1.0 | 8.0 | 0.00 | 0.14 | 0.00 | 46 | 1015.9 |
| 20260507104556 | 67 | 134 | 3.0 | 7.0 | 0.00 | 0.14 | 0.00 | 46 | 1016.3 |
| 20260507103055 | 66 | 185 | 2.0 | 10.0 | 0.00 | 0.14 | 0.00 | 49 | 1016.3 |
| 20260507101559 | 65 | 126 | 4.0 | 11.0 | 0.00 | 0.14 | 0.00 | 49 | 1016.4 |
| 20260507100057 | 65 | 176 | 2.0 | 8.0 | 0.00 | 0.14 | 0.00 | 45 | 1016.4 |
| 20260507094552 | 64 | 303 | 2.0 | 7.0 | 0.00 | 0.16 | 0.00 | 47 | 1016.4 |
| 20260507093054 | 64 | 329 | 4.0 | 9.0 | 0.00 | 0.16 | 0.00 | 51 | 1016.5 |
| 20260507091550 | 64 | 130 | 2.0 | 7.0 | 0.00 | 0.16 | 0.00 | 47 | 1016.4 |
| 20260507090105 | 62 | 0 | 1.0 | 5.0 | 0.00 | 0.16 | 0.00 | 52 | 1016.5 |
| 20260507084552 | 62 | 108 | 0.0 | 6.0 | 0.00 | 0.22 | 0.00 | 49 | 1016.5 |
| 20260507083054 | 60 | 138 | 0.0 | 5.0 | 0.00 | 0.22 | 0.00 | 52 | 1016.4 |
| 20260507081553 | 61 | 0 | 0.0 | 3.0 | 0.00 | 0.22 | 0.00 | 58 | 1016.3 |
| 20260507074606 | 58 | 99 | 1.0 | 7.0 | 0.00 | 0.24 | 0.00 | 59 | 1016.2 |
| 20260507073054 | 56 | 119 | 0.0 | 4.0 | 0.00 | 0.24 | 0.00 | 66 | 1016.1 |
| 20260507071555 | 55 | 44 | 0.0 | 3.0 | 0.00 | 0.24 | 0.00 | 68 | 1016.0 |
| 20260507070106 | 54 | 130 | 1.0 | 4.0 | 0.00 | 0.24 | 0.00 | 68 | 1016.0 |
| 20260507064559 | 54 | 117 | 1.0 | 5.0 | 0.00 | 0.30 | 0.00 | 67 | 1015.7 |
| 20260507063058 | 54 | 133 | 0.0 | 3.0 | 0.00 | 0.30 | 0.00 | 69 | 1015.7 |
| 20260507061552 | 52 | 19 | 0.0 | 3.0 | 0.00 | 0.30 | 0.00 | 71 | 1015.6 |
| 20260507060049 | 52 | 0 | 0.0 | 3.0 | 0.00 | 0.30 | 0.00 | 70 | 1015.4 |
| 20260507054554 | 51 | 0 | 0.0 | 3.0 | 0.00 | 0.37 | 0.00 | 70 | 1015.3 |
| 20260507053053 | 51 | 159 | 0.0 | 3.0 | 0.00 | 0.37 | 0.00 | 69 | 1015.1 |
| 20260507051558 | 50 | 0 | 0.0 | 4.0 | 0.00 | 0.37 | 0.00 | 69 | 1014.9 |
| 20260507044559 | 49 | 360 | 3.0 | 5.0 | 0.00 | 0.51 | 0.00 | 68 | 1014.6 |
| 20260507043053 | 48 | 335 | 3.0 | 5.0 | 0.00 | 0.51 | 0.00 | 69 | 1014.4 |
| 20260507041551 | 48 | 334 | 2.0 | 4.0 | 0.00 | 0.51 | 0.00 | 68 | 1014.3 |
| 20260507040051 | 48 | 13 | 2.0 | 4.0 | 0.00 | 0.51 | 0.00 | 66 | 1014.4 |
| 20260507034553 | 49 | 38 | 2.0 | 4.0 | 0.00 | 0.66 | 0.00 | 66 | 1014.4 |
| 20260507033056 | 49 | 227 | 0.0 | 2.0 | 0.00 | 0.66 | 0.00 | 67 | 1014.3 |
| 20260507031557 | 49 | 0 | 1.0 | 4.0 | 0.00 | 0.66 | 0.00 | 66 | 1014.3 |
| 20260507030053 | 49 | 319 | 2.0 | 6.0 | 0.00 | 0.66 | 0.00 | 69 | 1014.3 |
| 20260507024551 | 48 | 341 | 3.0 | 8.0 | 0.00 | 0.71 | 0.00 | 74 | 1014.4 |
| 20260507023051 | 49 | 329 | 3.0 | 6.0 | 0.00 | 0.71 | 0.00 | 75 | 1014.3 |
| 20260507021550 | 49 | 321 | 2.0 | 6.0 | 0.00 | 0.71 | 0.00 | 75 | 1014.2 |
| 20260507020058 | 49 | 328 | 2.0 | 8.0 | 0.00 | 0.71 | 0.00 | 74 | 1014.3 |
| 20260507014553 | 50 | 0 | 1.0 | 5.0 | 0.00 | 0.81 | 0.00 | 73 | 1014.2 |
| 20260507013101 | 50 | 325 | 3.0 | 6.0 | 0.00 | 0.81 | 0.00 | 73 | 1014.2 |
| 20260507011553 | 50 | 342 | 3.0 | 5.0 | 0.00 | 0.81 | 0.00 | 73 | 1014.3 |
| 20260507004551 | 51 | 338 | 3.0 | 6.0 | 0.00 | 0.88 | 0.00 | 72 | 1014.2 |
| 20260507003056 | 51 | 328 | 3.0 | 7.0 | 0.00 | 0.88 | 0.00 | 73 | 1014.0 |
| 20260507001554 | 52 | 338 | 3.0 | 6.0 | 0.00 | 0.88 | 0.00 | 72 | 1014.2 |
| 20260507000052 | 52 | 342 | 2.0 | 8.0 | 0.00 | 0.88 | 0.00 | 72 | 1014.3 |